Find Kosmos-381

NORAD ID: 4783 Int'l Des: 1970-102 Owner: OKB10 Country: SU operational
LEOCIRCULAR

当前视图

正在加载3D地球...

About Kosmos-381

Kosmos-381 (NORAD 4783) is a satellite by OKB10 of SU. It operates in LEO, CIRCULAR orbit

即将过境

Passes for default location (London). Set your location on the main map for personalized predictions.

高度历史

Loading altitude history...

两行轨道根数

1 04783U 70102A 26195.61708111 -.00000006 00000-0 17684-4 0 9997
2 04783 74.0344 325.8989 0031007 338.1663 21.8133 13.75048248789926
Epoch: Jul 14, 2026 • Age: 9 hours

当前状态

高度 963.0 km
远地点 / 近地点 N/A
速度 7.38 km/s
星下点 -0.39°S, 39.27°E
类型 other

Most Searched